Regional Weather Roundup
Issued by NWS Cleveland, OH

Home | Current Version | Previous Version | Graphics & Text | Print | Product List | Glossary On
Versions: 1 2 3 4 5 6 7 8 9 10 11 12 13 14 15 16 17 18 19 20 21 22 23 24 25 26 27 28 29 30 31 32 33 34 35 36 37 38 39 40 41 42 43 44 45 46 47 48 49 50
000
ASUS41 KCLE 281802
RWRCLE
OHIO REGIONAL WEATHER ROUNDUP
NATIONAL WEATHER SERVICE CLEVELAND, OH
200 PM EDT THU MAY 28 2015

NOTE: "FAIR" INDICATES FEW OR NO CLOUDS BELOW 12,000 FEET WITH NO
SIGNIFICANT WEATHER AND/OR OBSTRUCTIONS TO VISIBILITY.

OHZ001>008-015>018-024>027-034-035-043-044-281900-
   NORTHWEST OHIO

CITY           SKY/WX    TMP DP  RH WIND       PRES   REMARKS
DEFIANCE       SUNNY     77  60  55 E8        30.25F
FINDLAY        SUNNY     79  56  45 SE10      30.24F
TOLEDO EXPRESS NOT AVBL
TOLEDO EXEC    SUNNY     76  55  48 SE7       30.27F
LIMA           PTSUNNY   77  61  57 E9        30.24S
$$

OHZ009>014-019>023-028>033-038-089-281900-
   NORTHEAST OHIO

CITY           SKY/WX    TMP DP  RH WIND       PRES   REMARKS
CLE-HOPKINS    SUNNY     74  57  55 N8        30.29S
CLE-LAKEFRONT  SUNNY     67  57  70 N8        30.27F
CUY CO. ARPT   NOT AVBL
LORAIN-ELYRIA  SUNNY     77  55  46 SE5       30.27F
ASHTABULA      SUNNY     74  55  51 SE7       30.29F
AKRON-CANTON   PTSUNNY   77  56  48 VRB5      30.28S
WOOSTER        SUNNY     75  59  57 E6        30.28S
MANSFIELD      SUNNY     76  55  48 E9        30.27F
YOUNGSTOWN     MOSUNNY   76  56  49 VRB7      30.28F
$$

OHZ042-051>053-060>062-070>072-077>081-281900-
  SOUTHWEST OHIO

CITY           SKY/WX    TMP DP  RH WIND       PRES   REMARKS
CINC-COVINGTON PTSUNNY   77  65  66 S7        30.21F
CINC-LUNKEN    PTSUNNY   79  67  66 SE6       30.21F
HAMILTON       MOSUNNY   81  66  60 CALM      30.21F
DAYTON         MOSUNNY   79  62  56 S3        30.23F
WRIGHT-PAT AFB MOSUNNY   79  63  58 S7        30.21F
DAYTON GENERAL MOSUNNY   77  63  61 SE3       30.21F
WILMINGTON     MOSUNNY   78  63  59 SE7       30.22F
$$

OHZ036-037-039>041-045>050-054>059-063>069-073>076-082>088-281900-
  CENTRAL AND SOUTHEAST OHIO

CITY           SKY/WX    TMP DP  RH WIND       PRES   REMARKS
COLUMBUS       PTSUNNY   78  62  57 E5        30.23S
OSU AIRPORT    CLOUDY    77  60  55 E6        30.23F
BOLTON FIELD   NOT AVBL
RICKENBACK AFB NOT AVBL
NEWARK         MOSUNNY   80  61  52 E8        30.24S
MARION         PTSUNNY   76  59  55 E8        30.25F
LANCASTER      PTSUNNY   79  62  56 E5        30.24F
ZANESVILLE     NOT AVBL
NEW PHILLY     MOSUNNY   79  60  52 VRB3      30.26F
$$


USA.gov is the U.S. government's official web portal to all federal, state and local government web resources and services.